Regional Weather Roundup
Issued by NWS Upton, NY

Current Version | Previous Version | Graphics & Text | Print | Product List | Glossary Off
Versions: 1 2 3 4 5 6 7 8 9 10 11 12 13 14 15 16 17 18 19 20 21 22 23 24 25 26 27

000
ASUS41 KOKX 241109
RWROKX

REGIONAL WEATHER ROUNDUP
NATIONAL WEATHER SERVICE NEW YORK NY
700 AM EDT WED MAY 24 2017

NOTE: "FAIR" INDICATES FEW OR NO CLOUDS BELOW 12,000 FEET WITH NO
SIGNIFICANT WEATHER AND/OR OBSTRUCTIONS TO VISIBILITY.

NYZ071-072-176-178-NJZ106-104-241200-
NEW YORK CITY METRO AREA

CITY           SKY/WX    TMP DP  RH WIND       PRES   REMARKS
Central Park   LGT RAIN  57  55  93 NE3       29.76S
Wall St Helipt CLOUDY    59  54  83 NE6       29.75R
Bronx Bot Gard   N/A     55  52  88 N1        29.76R
LaGuardia APRT CLOUDY    58  53  84 NE5       29.74R
Kennedy INTL   CLOUDY    58  57  97 N5        29.75R
Breezy Point     N/A     55 N/A N/A NE3         N/A
Newark/Liberty CLOUDY    58  55  90 NE5       29.73F
Teterboro      LGT RAIN  58  53  84 NE3       29.73S
$$

NYZ177-179-078>081-241200-
LONG ISLAND NEW YORK

CITY           SKY/WX    TMP DP  RH WIND       PRES   REMARKS
Jones Beach      N/A     55 N/A N/A E5          N/A
Matinecock PT  NOT AVBL
Farmingdale    LGT RAIN  56  54  93 CALM      29.74R
MacArthur/ISP  CLOUDY    56  55  97 E6        29.73R
Shirley        CLOUDY    55  55 100 CALM      29.74R FOG
Mt Sinai Harb    N/A     55 N/A N/A E3          N/A
Westhampton    CLOUDY    56  54  93 CALM      29.75R
East Hampton   LGT RAIN  54  52  93 E3        29.74R
Montauk          N/A     55  54  96 NE5       29.75F
$$

NYZ052-065-067-241200-
HUDSON VALLEY

CITY           SKY/WX    TMP DP  RH WIND       PRES   REMARKS
White Plains   LGT RAIN  57  53  86 N3        29.75R
Larchmont Harb   N/A     55 N/A N/A NW5         N/A
Croton O-T Hud   N/A     59 N/A N/A MISG        N/A
Newburgh       PTSUNNY   55  54  94 CALM      29.76S
Montgomery     CLOUDY    56  53  90 CALM      29.74S
Poughkeepsie   CLOUDY    54  51  90 CALM      29.74S
Albany         CLOUDY    55  51  86 N5        29.77S
$$

NJZ001-105-106-008-010-013-015-019>022-104-241200-
NEW JERSEY

CITY           SKY/WX    TMP DP  RH WIND       PRES   REMARKS
Newark/Liberty CLOUDY    58  55  90 NE5       29.73F
Teterboro      LGT RAIN  58  53  84 NE3       29.73S
Caldwell       LGT RAIN  59  55  87 CALM      29.75S
Somerville     LGT RAIN  57  55  93 N3        29.72R
Linden         CLOUDY    57  54  88 CALM      29.74R
Perth Amboy      N/A     57 N/A N/A NE5         N/A
Sussex         CLOUDY    55  53  93 CALM      29.74F
Andover          N/A     56  51  84 CALM      29.73F
Trenton        CLOUDY    57  54  89 NE6       29.72R
Millville      LGT RAIN  57  57 100 NE8       29.70S
Atlantic City  PTSUNNY   58  55  90 NE8       29.70S FOG
Wrightstown    CLOUDY    56  54  94 NE5       29.71R
Toms River     CLOUDY    56  55  97 NE3       29.74R
Belmar         CLOUDY    56  55  97 E5        29.74S
$$

PAZ047>061-062-071-241200-
EASTERN PENNSYLVANIA

CITY           SKY/WX    TMP DP  RH WIND       PRES   REMARKS
Philadelphia   CLOUDY    59  52  77 NE9       29.72R
Allentown      CLOUDY    57  53  86 NE5       29.73S
Scranton       CLOUDY    55  49  80 E5        29.73F
$$

CTZ002-004>006-009-010-012-RIZ004-006-007-MAZ004-011-015-241200-
SOUTHERN NEW ENGLAND
 IN CT

CITY           SKY/WX    TMP DP  RH WIND       PRES   REMARKS
Bradley INTL   CLOUDY    55  53  93 N6        29.76R
Hartford       CLOUDY    57  53  86 N6        29.75R
Danbury        CLOUDY    55  53  93 CALM      29.77R
Wtrbury/Oxford PTSUNNY   55  48  76 CALM      29.77R
Bridgeport     LGT RAIN  58  54  86 NE8       29.75R
Meriden        LGT RAIN  55  54  96 CALM      29.75S
New Haven      LGT RAIN  56  53  90 VRB3      29.75S
Chester        LGT RAIN  55  54  94 CALM      29.75F
Groton         LGT RAIN  56  53  90 NE5       29.75S
Wilimantic     CLOUDY    57  53  86 CALM      29.76S

 IN RI

CITY           SKY/WX    TMP DP  RH WIND       PRES   REMARKS
Providence     LGT RAIN  57  57 100 E3        29.77S
Block Island   CLOUDY    54  52  93 NE7       29.75F
Westerly       LGT RAIN  56  54  93 N6        29.76S
 IN MA

CITY           SKY/WX    TMP DP  RH WIND       PRES   REMARKS
Boston         CLOUDY    56  54  93 E5        29.78S
Worcester      CLOUDY    57  46  66 N5        29.77S
Westfield      CLOUDY    54  53  97 N6        29.77R
Provincetown   CLOUDY    56  53  90 E5        29.78F
Nantucket      CLOUDY    53  49  86 NE10      29.76F
$$

ANZ330-335-338-340-345-350-353-355-241200-
COASTAL MARINE OBSERVATIONS


STATION/POSITION TIME  SKY/WX   TEMP    WIND        PRES    VSBY  WAVE
                                AIR SEA DIR/SP/G                  HT/PER
                 (UTC)          (F)     (DEG/KT/KT) (MB)    (MI)  (FT/S)
NY HARB ENTRANCE 0950            57 58   70/ 12/ 14 1005.7          3/ 7
20 S FIRE ISLAND 1050            56 55   70/ 14/ 16 1005.7          3/ 6
GREAT SOUTH BAY  1015            58 64   70/ 10/ 10   N/A
23 SSW MONTAUK P 0950            54 54              1006.7          3/ 7
15 E BARNEGAT LI 1030               57                N/A           3/ 6
HUDSON CANYON    0950            54 54   60/ 19/ 23 1004.4          4/ 6
KINGS POINT      1036            56 57   20/  6/  6 1007.1
EXECUTION ROCKS  1045            58                   N/A
CENTRAL LI SOUND 1015            57      60/  6/ 10   N/A           0
EASTERN LI SOUND NOT AVBL
ROBBINS REEF     1042            58      20/  4/  4 1007.3
$$


>>>>>>>>>>>>>>>>>>>>>>>>>>>> KEY <<<<<<<<<<<<<<<<<<<<<<<<<<<
>                                                          <
>     SKY/WX - Sky Condition/Present Weather               <
>     TMP    - Temperature in Fahrenheit                   <
>     DP     - Dew Point in Fahrenheit                     <
>     RH     - Relative Humidity in Percent                <
>     WIND   - Direction (from) and Speed in MPH           <
>     PRES   - Mean Sea Level Pressure (inches of Hg)      <
>     WCI    - Wind Chill Index                            <
>     VSB    - VISIBILITY IN MILES                         <
>     HX     - HEAT INDEX                                  <
>     TC     - TEMPERATURE IN CELSIUS                      <
>     VRB    - VARIABLE WIND DIRECTION                     <
>                                                          <
>>>>>>>>>>>>>>>>>>>>>>>>>>>> KEY <<<<<<<<<<<<<<<<<<<<<<<<<<<




USA.gov is the U.S. government's official web portal to all federal, state and local government web resources and services.